AFR1036 LFPG-LJLJ

Flight info

Callsign AFR1036
Flight time 1h 37m
Altitude 35000
Route OKASI DCT OKEKO DCT MOU DCT MADIV DCT MOKIP DCT TUFTA DCT GEVEA DCT ORSUD DCT BIBAN DCT OSKOR/N0450F380 DCT MALUG/N0450F370 DCT VEKEN/N0381F190 Y177 DEGUM
Aircraft E190/M-SDE3GILORVW/S

Departure

Time 2026-04-21 05:51
Airport Charles de Gaulle International Airport (LFPG)

Arrival

Time 2026-04-21 07:29
Airport Ljubljana Jože Pučnik Airport (LJLJ)
Time Latitude Longitude Altitude Speed Heading
2026-04-21 05:37 49.00572 2.56853 361 ft 0 kts 207°
2026-04-21 05:43 49.00584 2.56862 363 ft 4 kts 207°
2026-04-21 05:44 49.00608 2.56880 360 ft 4 kts 206°
2026-04-21 05:44 49.00632 2.56899 361 ft 4 kts 207°
2026-04-21 05:44 49.00651 2.56914 357 ft 0 kts 208°
2026-04-21 05:46 49.00649 2.56893 358 ft 6 kts 265°
2026-04-21 05:46 49.00645 2.56783 353 ft 12 kts 266°
2026-04-21 05:47 49.00637 2.56643 360 ft 14 kts 264°
2026-04-21 05:47 49.00629 2.56481 353 ft 16 kts 266°
2026-04-21 05:47 49.00619 2.56297 353 ft 18 kts 265°
2026-04-21 05:47 49.00607 2.56109 356 ft 15 kts 262°
2026-04-21 05:48 49.00576 2.55950 360 ft 17 kts 257°
2026-04-21 05:48 49.00564 2.55763 353 ft 19 kts 265°
2026-04-21 05:48 49.00551 2.55565 357 ft 19 kts 254°
2026-04-21 05:48 49.00457 2.55473 353 ft 18 kts 179°
2026-04-21 05:49 49.00332 2.55522 360 ft 20 kts 164°
2026-04-21 05:49 49.00195 2.55582 360 ft 22 kts 164°
2026-04-21 05:49 49.00044 2.55646 357 ft 23 kts 163°
2026-04-21 05:49 48.99903 2.55776 353 ft 24 kts 142°
2026-04-21 05:50 48.99780 2.55802 359 ft 19 kts 178°
2026-04-21 05:50 48.99677 2.55815 352 ft 13 kts 173°
2026-04-21 05:50 48.99603 2.55873 356 ft 13 kts 95°
2026-04-21 05:50 48.99610 2.56022 353 ft 17 kts 84°
2026-04-21 05:51 48.99635 2.56444 354 ft 79 kts 84°
2026-04-21 05:51 48.99705 2.57690 359 ft 157 kts 86°
2026-04-21 05:51 48.99782 2.59532 1067 ft 184 kts 83°
2026-04-21 05:51 48.99918 2.61601 1742 ft 202 kts 83°
2026-04-21 05:52 49.00055 2.63853 2146 ft 227 kts 84°
2026-04-21 05:52 49.00182 2.66383 2666 ft 249 kts 85°
2026-04-21 05:52 49.00300 2.69085 3354 ft 261 kts 84°
2026-04-21 05:52 49.00450 2.71883 4138 ft 267 kts 84°
2026-04-21 05:53 49.00524 2.74721 5032 ft 269 kts 88°
2026-04-21 05:53 49.00511 2.77565 5878 ft 268 kts 89°
2026-04-21 05:53 49.00360 2.80369 6722 ft 268 kts 95°
2026-04-21 05:53 49.00101 2.83199 7387 ft 272 kts 95°
2026-04-21 05:54 48.99822 2.86071 8035 ft 277 kts 96°
2026-04-21 05:54 48.99530 2.88995 8669 ft 282 kts 96°
2026-04-21 05:54 48.99115 2.91938 9326 ft 290 kts 110°
2026-04-21 05:54 48.97910 2.94450 9976 ft 302 kts 139°
2026-04-21 05:55 48.96008 2.95960 10330 ft 321 kts 166°
2026-04-21 05:55 48.93737 2.96087 10705 ft 334 kts 192°
2026-04-21 05:55 48.91591 2.94734 11189 ft 337 kts 217°
2026-04-21 05:55 48.89706 2.92592 11856 ft 338 kts 221°
2026-04-21 05:56 48.87829 2.90407 12587 ft 339 kts 220°
2026-04-21 05:56 48.85925 2.88345 13350 ft 340 kts 218°
2026-04-21 05:56 48.83939 2.86385 14151 ft 340 kts 217°
2026-04-21 05:56 48.81923 2.84508 14903 ft 339 kts 216°
2026-04-21 05:57 48.79894 2.82677 15610 ft 340 kts 216°
2026-04-21 05:57 48.77786 2.80994 16259 ft 345 kts 210°
2026-04-21 05:57 48.75602 2.79448 16909 ft 347 kts 211°
2026-04-21 05:57 48.73396 2.77910 17578 ft 350 kts 210°
2026-04-21 05:58 48.71170 2.76372 18241 ft 353 kts 211°
2026-04-21 05:58 48.68921 2.74822 18860 ft 355 kts 211°
2026-04-21 05:58 48.66661 2.73264 19439 ft 358 kts 211°
2026-04-21 05:58 48.64380 2.71691 20024 ft 362 kts 211°
2026-04-21 05:59 48.62081 2.70110 20600 ft 365 kts 211°
2026-04-21 05:59 48.59756 2.68509 21136 ft 368 kts 211°
2026-04-21 05:59 48.57443 2.66921 21658 ft 372 kts 212°
2026-04-21 06:00 48.52683 2.63660 22690 ft 379 kts 211°
2026-04-21 06:00 48.50103 2.62476 23119 ft 394 kts 199°
2026-04-21 06:00 48.47352 2.61865 23644 ft 402 kts 193°
2026-04-21 06:00 48.44580 2.61536 24121 ft 408 kts 187°
2026-04-21 06:01 48.41703 2.61667 24577 ft 413 kts 185°
2026-04-21 06:01 48.38809 2.61834 24975 ft 418 kts 184°
2026-04-21 06:01 48.35886 2.62046 25394 ft 422 kts 184°
2026-04-21 06:01 48.32947 2.62260 25848 ft 424 kts 184°
2026-04-21 06:02 48.30024 2.62708 26229 ft 433 kts 175°
2026-04-21 06:02 48.27079 2.63872 26608 ft 442 kts 167°
2026-04-21 06:02 48.24204 2.65625 26967 ft 450 kts 157°
2026-04-21 06:02 48.21405 2.67786 27325 ft 453 kts 158°
2026-04-21 06:03 48.18580 2.69931 27650 ft 455 kts 157°
2026-04-21 06:03 48.15756 2.72096 28009 ft 457 kts 157°
2026-04-21 06:03 48.12905 2.74281 28372 ft 460 kts 157°
2026-04-21 06:03 48.10052 2.76492 28728 ft 462 kts 156°
2026-04-21 06:04 48.07135 2.78505 29078 ft 462 kts 161°
2026-04-21 06:04 48.04183 2.80437 29429 ft 465 kts 161°
2026-04-21 06:04 48.01199 2.82336 29779 ft 467 kts 161°
2026-04-21 06:05 47.95177 2.86161 30242 ft 475 kts 161°
2026-04-21 06:05 47.92139 2.88087 30612 ft 474 kts 161°
2026-04-21 06:05 47.89108 2.90007 30979 ft 472 kts 161°
2026-04-21 06:05 47.86085 2.91918 31324 ft 471 kts 161°
2026-04-21 06:06 47.83067 2.93825 31659 ft 470 kts 161°
2026-04-21 06:06 47.80059 2.95724 31984 ft 470 kts 162°
2026-04-21 06:06 47.77032 2.97630 32208 ft 472 kts 162°
2026-04-21 06:06 47.74017 2.99528 32608 ft 468 kts 161°
2026-04-21 06:07 47.71024 3.01413 32988 ft 466 kts 162°
2026-04-21 06:07 47.68036 3.03288 33331 ft 465 kts 162°
2026-04-21 06:07 47.65059 3.05154 33664 ft 464 kts 162°
2026-04-21 06:07 47.62089 3.07017 34004 ft 463 kts 162°
2026-04-21 06:08 47.59123 3.08871 34269 ft 462 kts 162°
2026-04-21 06:08 47.56166 3.10722 34519 ft 461 kts 162°
2026-04-21 06:08 47.53212 3.12562 34784 ft 459 kts 161°
2026-04-21 06:08 47.50276 3.14395 34978 ft 452 kts 161°
2026-04-21 06:09 47.47389 3.16190 35044 ft 451 kts 162°
2026-04-21 06:09 47.41585 3.19797 35103 ft 456 kts 161°
2026-04-21 06:10 47.35742 3.23418 35099 ft 455 kts 161°
2026-04-21 06:10 47.29912 3.27023 35091 ft 452 kts 161°
2026-04-21 06:11 47.24099 3.30608 35099 ft 453 kts 161°
2026-04-21 06:11 47.18279 3.34190 35087 ft 453 kts 162°
2026-04-21 06:12 47.12490 3.37743 35084 ft 453 kts 161°
2026-04-21 06:12 47.06674 3.41306 35091 ft 452 kts 161°
2026-04-21 06:13 47.00864 3.44855 35095 ft 452 kts 161°
2026-04-21 06:13 46.95056 3.48398 35085 ft 452 kts 162°
2026-04-21 06:14 46.89243 3.51931 35071 ft 450 kts 161°
2026-04-21 06:14 46.83450 3.55446 35075 ft 451 kts 161°
2026-04-21 06:15 46.77684 3.58937 35064 ft 451 kts 161°
2026-04-21 06:15 46.71931 3.62765 35067 ft 456 kts 152°
2026-04-21 06:15 46.69352 3.65478 35068 ft 459 kts 141°
2026-04-21 06:16 46.67090 3.68784 35077 ft 462 kts 131°
2026-04-21 06:16 46.63787 3.76734 35070 ft 463 kts 111°
2026-04-21 06:17 46.62358 3.85808 35071 ft 460 kts 90°
2026-04-21 06:17 46.62411 3.95073 35075 ft 458 kts 87°
2026-04-21 06:18 46.62138 4.04364 35086 ft 460 kts 93°
2026-04-21 06:18 46.61370 4.13592 35069 ft 463 kts 96°
2026-04-21 06:19 46.60374 4.22849 35071 ft 464 kts 101°
2026-04-21 06:19 46.58827 4.31959 35067 ft 464 kts 103°
2026-04-21 06:20 46.57219 4.41056 35072 ft 464 kts 103°
2026-04-21 06:20 46.55599 4.50170 35069 ft 466 kts 103°
2026-04-21 06:21 46.53982 4.59226 35068 ft 466 kts 103°
2026-04-21 06:21 46.52349 4.68335 35061 ft 466 kts 103°
2026-04-21 06:22 46.50709 4.77434 35062 ft 466 kts 103°
2026-04-21 06:22 46.49058 4.86545 35063 ft 468 kts 103°
2026-04-21 06:23 46.47395 4.95681 35055 ft 468 kts 103°
2026-04-21 06:23 46.45724 5.04802 35034 ft 467 kts 104°
2026-04-21 06:24 46.44060 5.13873 35059 ft 465 kts 103°
2026-04-21 06:24 46.42389 5.22937 35061 ft 465 kts 103°
2026-04-21 06:25 46.40714 5.31974 35043 ft 467 kts 104°
2026-04-21 06:25 46.39575 5.38063 35049 ft 467 kts 104°
2026-04-21 06:26 46.37332 5.50157 35044 ft 467 kts 104°
2026-04-21 06:26 46.35920 5.57721 35044 ft 467 kts 104°
2026-04-21 06:27 46.34215 5.66818 35049 ft 470 kts 104°
2026-04-21 06:27 46.32497 5.75941 35049 ft 470 kts 104°
2026-04-21 06:28 46.30774 5.85049 35070 ft 469 kts 104°
2026-04-21 06:28 46.29050 5.94117 35080 ft 469 kts 104°
2026-04-21 06:29 46.27306 6.03251 35069 ft 472 kts 104°
2026-04-21 06:29 46.25512 6.12408 35070 ft 473 kts 107°
2026-04-21 06:30 46.23178 6.21238 35086 ft 473 kts 111°
2026-04-21 06:30 46.20727 6.30070 35077 ft 473 kts 111°
2026-04-21 06:31 46.18269 6.38889 35048 ft 470 kts 111°
2026-04-21 06:31 46.15821 6.47632 35055 ft 473 kts 111°
2026-04-21 06:32 46.13360 6.56410 35042 ft 472 kts 111°
2026-04-21 06:32 46.10889 6.65180 35033 ft 471 kts 111°
2026-04-21 06:33 46.08426 6.73893 35019 ft 472 kts 111°
2026-04-21 06:33 46.05941 6.82661 35040 ft 472 kts 112°
2026-04-21 06:34 46.03446 6.91418 35002 ft 472 kts 112°
2026-04-21 06:34 46.00943 7.00184 35032 ft 473 kts 112°
2026-04-21 06:35 45.98453 7.08869 35005 ft 471 kts 112°
2026-04-21 06:35 45.96104 7.17700 35009 ft 471 kts 107°
2026-04-21 06:36 45.94747 7.26903 35026 ft 470 kts 98°
2026-04-21 06:36 45.93633 7.36125 34980 ft 471 kts 98°
2026-04-21 06:37 45.92541 7.45403 34995 ft 466 kts 96°
2026-04-21 06:37 45.91676 7.54582 34969 ft 466 kts 96°
2026-04-21 06:38 45.90820 7.63841 34982 ft 467 kts 96°
2026-04-21 06:38 45.89951 7.73117 34982 ft 467 kts 96°
2026-04-21 06:39 45.89084 7.82314 34976 ft 467 kts 96°
2026-04-21 06:39 45.88202 7.91560 34956 ft 466 kts 96°
2026-04-21 06:40 45.87314 8.00783 34986 ft 467 kts 96°
2026-04-21 06:40 45.86417 8.10028 34987 ft 466 kts 96°
2026-04-21 06:41 45.85521 8.19196 34950 ft 467 kts 96°
2026-04-21 06:41 45.84609 8.28406 34983 ft 466 kts 96°
2026-04-21 06:42 45.83689 8.37672 34952 ft 470 kts 96°
2026-04-21 06:42 45.82757 8.46958 34981 ft 470 kts 96°
2026-04-21 06:43 45.81823 8.56184 34970 ft 471 kts 96°
2026-04-21 06:43 45.80878 8.65459 34992 ft 470 kts 96°
2026-04-21 06:44 45.79919 8.74777 34992 ft 475 kts 96°
2026-04-21 06:44 45.78947 8.84132 34987 ft 473 kts 96°
2026-04-21 06:45 45.77971 8.93469 34989 ft 474 kts 96°
2026-04-21 06:45 45.76992 9.02748 34986 ft 474 kts 96°
2026-04-21 06:46 45.75997 9.12110 34998 ft 478 kts 96°
2026-04-21 06:46 45.74989 9.21513 34985 ft 476 kts 97°
2026-04-21 06:47 45.73975 9.30899 34993 ft 477 kts 97°
2026-04-21 06:47 45.72953 9.40288 34979 ft 476 kts 97°
2026-04-21 06:48 45.71929 9.49610 34997 ft 477 kts 97°
2026-04-21 06:48 45.70891 9.59001 34995 ft 477 kts 97°
2026-04-21 06:49 45.69845 9.68381 34990 ft 477 kts 97°
2026-04-21 06:49 45.68792 9.77755 34999 ft 477 kts 97°
2026-04-21 06:50 45.67729 9.87152 34997 ft 478 kts 97°
2026-04-21 06:50 45.66665 9.96471 34983 ft 478 kts 97°
2026-04-21 06:51 45.65591 10.05847 35004 ft 478 kts 96°
2026-04-21 06:51 45.65533 10.15253 34992 ft 470 kts 77°
2026-04-21 06:51 45.66257 10.19786 34970 ft 463 kts 66°
2026-04-21 06:52 45.67452 10.24022 34988 ft 457 kts 56°
2026-04-21 06:52 45.71017 10.31349 35026 ft 444 kts 43°
2026-04-21 06:53 45.74970 10.38130 34997 ft 443 kts 43°
2026-04-21 06:53 45.78807 10.45061 35024 ft 445 kts 45°
2026-04-21 06:54 45.82577 10.52045 35009 ft 445 kts 45°
2026-04-21 06:54 45.86038 10.59505 35014 ft 450 kts 51°
2026-04-21 06:55 45.89377 10.67137 35001 ft 450 kts 51°
2026-04-21 06:55 45.92693 10.74750 35003 ft 450 kts 51°
2026-04-21 06:56 45.96010 10.82380 35003 ft 449 kts 51°
2026-04-21 06:56 45.99295 10.89957 35008 ft 450 kts 51°
2026-04-21 06:57 46.02582 10.97560 34984 ft 450 kts 51°
2026-04-21 06:57 46.05899 11.05256 35015 ft 452 kts 51°
2026-04-21 06:58 46.09205 11.12943 34995 ft 451 kts 51°
2026-04-21 06:58 46.12506 11.20638 35001 ft 451 kts 51°
2026-04-21 06:59 46.15781 11.28298 34976 ft 451 kts 51°
2026-04-21 06:59 46.19078 11.36018 35008 ft 452 kts 51°
2026-04-21 07:00 46.22363 11.43754 35009 ft 451 kts 51°
2026-04-21 07:00 46.25649 11.51497 35006 ft 452 kts 51°
2026-04-21 07:01 46.28905 11.59199 35021 ft 452 kts 51°
2026-04-21 07:01 46.33821 11.70860 34998 ft 452 kts 51°
2026-04-21 07:02 46.37091 11.78652 35059 ft 455 kts 51°
2026-04-21 07:02 46.40355 11.86440 35009 ft 454 kts 52°
2026-04-21 07:03 46.43629 11.94276 35013 ft 454 kts 51°
2026-04-21 07:03 46.46891 12.02109 35023 ft 454 kts 51°
2026-04-21 07:04 46.50157 12.09976 35014 ft 454 kts 51°
2026-04-21 07:04 46.53413 12.17839 35083 ft 455 kts 51°
2026-04-21 07:05 46.56675 12.25743 35050 ft 456 kts 51°
2026-04-21 07:05 46.59918 12.33617 35047 ft 456 kts 51°
2026-04-21 07:06 46.63168 12.41529 35015 ft 455 kts 51°
2026-04-21 07:06 46.66411 12.49457 35014 ft 455 kts 51°
2026-04-21 07:07 46.69538 12.57507 35072 ft 463 kts 59°
2026-04-21 07:07 46.70626 12.61983 35048 ft 474 kts 69°
2026-04-21 07:07 46.71240 12.66721 34926 ft 478 kts 78°
2026-04-21 07:08 46.71404 12.71603 33864 ft 490 kts 88°
2026-04-21 07:08 46.71054 12.76591 32726 ft 498 kts 98°
2026-04-21 07:08 46.70220 12.81458 31671 ft 502 kts 108°
2026-04-21 07:08 46.68920 12.86181 30640 ft 503 kts 116°
2026-04-21 07:09 46.67397 12.90760 29566 ft 504 kts 117°
2026-04-21 07:09 46.65899 12.95343 28861 ft 495 kts 116°
2026-04-21 07:09 46.64508 12.99881 28164 ft 486 kts 114°
2026-04-21 07:09 46.63185 13.04356 27410 ft 477 kts 114°
2026-04-21 07:10 46.61936 13.08790 26705 ft 470 kts 112°
2026-04-21 07:10 46.60953 13.13240 25969 ft 465 kts 104°
2026-04-21 07:10 46.60099 13.17742 25343 ft 458 kts 105°
2026-04-21 07:10 46.59275 13.22178 24674 ft 451 kts 104°
2026-04-21 07:11 46.58471 13.26566 23991 ft 446 kts 104°
2026-04-21 07:11 46.57669 13.30890 23321 ft 440 kts 105°
2026-04-21 07:11 46.56837 13.35160 22592 ft 434 kts 106°
2026-04-21 07:11 46.55893 13.39300 21838 ft 430 kts 113°
2026-04-21 07:12 46.54726 13.43265 21201 ft 424 kts 114°
2026-04-21 07:12 46.53956 13.45864 20727 ft 422 kts 115°
2026-04-21 07:12 46.52773 13.49739 20061 ft 417 kts 115°
2026-04-21 07:12 46.51230 13.54792 19253 ft 409 kts 114°
2026-04-21 07:13 46.50079 13.58552 18600 ft 406 kts 114°
2026-04-21 07:13 46.48938 13.62272 17962 ft 401 kts 114°
2026-04-21 07:13 46.48427 13.63935 17667 ft 398 kts 114°
2026-04-21 07:13 46.47148 13.67584 16993 ft 391 kts 120°
2026-04-21 07:14 46.45891 13.71039 16439 ft 384 kts 117°
2026-04-21 07:14 46.44686 13.74467 15899 ft 378 kts 117°
2026-04-21 07:14 46.43503 13.77831 15259 ft 373 kts 117°
2026-04-21 07:14 46.42320 13.81151 14804 ft 366 kts 117°
2026-04-21 07:15 46.41152 13.84397 14179 ft 358 kts 117°
2026-04-21 07:15 46.40035 13.87602 13610 ft 354 kts 116°
2026-04-21 07:15 46.38916 13.90744 13050 ft 347 kts 116°
2026-04-21 07:15 46.37832 13.93807 12426 ft 344 kts 116°
2026-04-21 07:16 46.36729 13.96901 11831 ft 339 kts 116°
2026-04-21 07:16 46.35652 13.99911 11286 ft 334 kts 116°
2026-04-21 07:16 46.34619 14.02807 11163 ft 327 kts 116°
2026-04-21 07:16 46.33570 14.05746 11101 ft 330 kts 116°
2026-04-21 07:17 46.32511 14.08695 11094 ft 331 kts 116°
2026-04-21 07:17 46.31454 14.11655 11069 ft 331 kts 116°
2026-04-21 07:17 46.30395 14.14604 11079 ft 330 kts 116°
2026-04-21 07:17 46.29339 14.17547 11069 ft 331 kts 116°
2026-04-21 07:18 46.28276 14.20511 11074 ft 331 kts 116°
2026-04-21 07:18 46.27210 14.23465 11080 ft 332 kts 116°
2026-04-21 07:18 46.26145 14.26426 11071 ft 331 kts 116°
2026-04-21 07:18 46.25083 14.29372 11068 ft 331 kts 116°
2026-04-21 07:19 46.24295 14.32041 11069 ft 329 kts 103°
2026-04-21 07:19 46.23799 14.35217 11078 ft 327 kts 99°
2026-04-21 07:19 46.23330 14.38442 11079 ft 329 kts 102°
2026-04-21 07:19 46.22441 14.41486 11068 ft 331 kts 118°
2026-04-21 07:20 46.21172 14.44258 11080 ft 331 kts 126°
2026-04-21 07:20 46.19702 14.46823 11081 ft 332 kts 131°
2026-04-21 07:20 46.18132 14.49270 11073 ft 331 kts 133°
2026-04-21 07:20 46.16456 14.51559 11073 ft 332 kts 140°
2026-04-21 07:21 46.14669 14.53656 10846 ft 330 kts 140°
2026-04-21 07:21 46.12882 14.55722 10281 ft 327 kts 141°
2026-04-21 07:21 46.11108 14.57749 9800 ft 322 kts 140°
2026-04-21 07:21 46.09477 14.59849 9470 ft 308 kts 126°
2026-04-21 07:22 46.08574 14.62534 9105 ft 293 kts 99°
2026-04-21 07:22 46.08614 14.65332 8709 ft 279 kts 71°
2026-04-21 07:22 46.09529 14.67728 8237 ft 271 kts 46°
2026-04-21 07:22 46.11059 14.69235 7759 ft 267 kts 20°
2026-04-21 07:23 46.12892 14.69559 7314 ft 267 kts 354°
2026-04-21 07:23 46.14691 14.68909 6841 ft 267 kts 345°
2026-04-21 07:23 46.16472 14.68142 6364 ft 267 kts 346°
2026-04-21 07:23 46.18247 14.67351 5818 ft 267 kts 341°
2026-04-21 07:24 46.19611 14.65547 5222 ft 278 kts 298°
2026-04-21 07:24 46.20265 14.62919 5572 ft 278 kts 282°
2026-04-21 07:24 46.20458 14.60166 5493 ft 297 kts 273°
2026-04-21 07:24 46.20327 14.57005 4563 ft 317 kts 262°
2026-04-21 07:25 46.20018 14.54051 4598 ft 271 kts 256°
2026-04-21 07:25 46.19420 14.51837 4782 ft 211 kts 237°
2026-04-21 07:25 46.18613 14.50337 4807 ft 178 kts 221°
2026-04-21 07:25 46.17577 14.49447 4590 ft 171 kts 192°
2026-04-21 07:26 46.16428 14.49424 4352 ft 166 kts 163°
2026-04-21 07:26 46.15404 14.50221 3908 ft 163 kts 130°
2026-04-21 07:26 46.15228 14.51649 3481 ft 154 kts 64°
2026-04-21 07:26 46.16052 14.52505 3142 ft 148 kts 17°
2026-04-21 07:27 46.17100 14.52497 2724 ft 154 kts 353°
2026-04-21 07:27 46.18137 14.52173 2440 ft 153 kts 347°
2026-04-21 07:27 46.19145 14.51607 2001 ft 159 kts 329°
2026-04-21 07:27 46.19937 14.50569 1724 ft 149 kts 308°
2026-04-21 07:28 46.20511 14.49359 1518 ft 147 kts 304°
2026-04-21 07:28 46.21125 14.48171 1351 ft 150 kts 307°
2026-04-21 07:28 46.21734 14.46996 1228 ft 137 kts 307°
2026-04-21 07:28 46.22242 14.46003 1240 ft 107 kts 307°
2026-04-21 07:29 46.22562 14.45417 1259 ft 32 kts 331°
2026-04-21 07:29 46.22742 14.45335 1260 ft 24 kts 349°
2026-04-21 07:29 46.22822 14.45316 1266 ft 7 kts 359°
2026-04-21 07:29 46.22874 14.45350 1257 ft 10 kts 32°
2026-04-21 07:30 46.22937 14.45408 1264 ft 12 kts 24°
2026-04-21 07:30 46.22999 14.45463 1264 ft 0 kts 37°